• In Hungary
  • List of Countries
  • For 7 days
  • Water Temperature
  • Satellite Maps
  • Weather Map
  • News
  • Weather Widgets
  • user-avatar
    Login

    Hourly Weather Miedzyrzecze

    Today, 20 October, Friday

    Time Temperature Precipitation Wind Pressure Humidity
    00:00 +11°C° 0 mm 0 mps 741 mmHg 89%
    01:00 +10°C° 0 mm 0 mps 741 mmHg 91%
    02:00 +11°C° 0 mm 1 mps 741 mmHg 91%
    03:00 +11°C° 0 mm 1 mps 741 mmHg 91%
    04:00 +11°C° 0 mm 1 mps 741 mmHg 91%
    05:00 +11°C° 0 mm 1 mps 741 mmHg 91%
    06:00 +11°C° 0 mm 1 mps 741 mmHg 90%
    07:00 +11°C° 0 mm 1 mps 741 mmHg 90%
    08:00 +13°C° 0 mm 1 mps 741 mmHg 81%
    09:00 +15°C° 0 mm 1 mps 742 mmHg 73%
    10:00 +18°C° 0 mm 1 mps 742 mmHg 64%
    11:00 +19°C° 0 mm 1 mps 742 mmHg 59%
    12:00 +20°C° 0 mm 1 mps 741 mmHg 54%
    13:00 +21°C° 0 mm 1 mps 741 mmHg 49%
    14:00 +20°C° 0 mm 1 mps 741 mmHg 53%
    15:00 +20°C° 0 mm 1 mps 741 mmHg 56%
    16:00 +19°C° 0 mm 1 mps 741 mmHg 60%
    17:00 +18°C° 0 mm 1 mps 741 mmHg 64%
    18:00 +15°C° 0 mm 1 mps 741 mmHg 68%
    19:00 +14°C° 0 mm 1 mps 741 mmHg 72%
    20:00 +14°C° 0 mm 2 mps 741 mmHg 74%
    21:00 +13°C° 0 mm 2 mps 741 mmHg 75%
    22:00 +13°C° 0 mm 2 mps 742 mmHg 77%
    23:00 +13°C° 0 mm 2 mps 742 mmHg 78%

    Tomorrow, 21 October, Saturday

    Time Temperature Precipitation Wind Pressure Humidity
    00:00 +13°C° 0 mm 2 mps 742 mmHg 78%
    01:00 +12°C° 0 mm 2 mps 742 mmHg 78%
    02:00 +12°C° 0 mm 2 mps 741 mmHg 79%
    03:00 +12°C° 0 mm 2 mps 741 mmHg 79%
    04:00 +12°C° 0 mm 2 mps 741 mmHg 80%
    05:00 +12°C° 0 mm 2 mps 741 mmHg 79%
    06:00 +12°C° 0 mm 2 mps 741 mmHg 79%
    07:00 +12°C° 0 mm 2 mps 741 mmHg 78%
    08:00 +13°C° 0 mm 2 mps 741 mmHg 75%
    09:00 +15°C° 0 mm 2 mps 741 mmHg 72%
    10:00 +16°C° 0 mm 3 mps 741 mmHg 69%
    11:00 +16°C° 0 mm 3 mps 741 mmHg 69%
    12:00 +16°C° 0 mm 3 mps 741 mmHg 68%
    13:00 +17°C° 0 mm 3 mps 741 mmHg 67%
    14:00 +16°C° 0 mm 3 mps 741 mmHg 68%
    15:00 +16°C° 0 mm 2 mps 741 mmHg 69%
    16:00 +15°C° 0 mm 2 mps 740 mmHg 71%
    17:00 +15°C° 0 mm 1 mps 741 mmHg 74%
    18:00 +14°C° 0 mm 1 mps 741 mmHg 77%
    19:00 +12°C° 0 mm 0 mps 741 mmHg 80%
    20:00 +11°C° 0 mm 0 mps 741 mmHg 81%
    21:00 +12°C° 0 mm 1 mps 741 mmHg 83%
    22:00 +11°C° 0 mm 1 mps 741 mmHg 84%
    23:00 +11°C° 0 mm 1 mps 741 mmHg 85%

    Day after tomorrow, 22 October, Sunday

    Time Temperature Precipitation Wind Pressure Humidity
    00:00 +11°C° 0 mm 1 mps 741 mmHg 86%
    01:00 +11°C° 0 mm 1 mps 741 mmHg 87%
    02:00 +11°C° 0 mm 1 mps 740 mmHg 88%
    03:00 +10°C° 0 mm 1 mps 740 mmHg 89%
    04:00 +10°C° 0 mm 1 mps 740 mmHg 90%
    05:00 +10°C° 0 mm 1 mps 740 mmHg 90%
    06:00 +10°C° 0 mm 1 mps 740 mmHg 90%
    07:00 +10°C° 0 mm 2 mps 740 mmHg 90%
    08:00 +12°C° 0.1 mm 2 mps 740 mmHg 85%
    09:00 +14°C° 0.1 mm 2 mps 740 mmHg 80%
    10:00 +15°C° 0.1 mm 2 mps 740 mmHg 75%
    11:00 +14°C° 0.6 mm 2 mps 740 mmHg 78%
    12:00 +12°C° 0.6 mm 3 mps 739 mmHg 82%
    13:00 +12°C° 0.6 mm 3 mps 739 mmHg 86%
    14:00 +11°C° 0.5 mm 3 mps 739 mmHg 87%
    15:00 +11°C° 0.5 mm 3 mps 739 mmHg 89%
    16:00 +10°C° 0.5 mm 2 mps 739 mmHg 90%
    17:00 +10°C° 0.2 mm 2 mps 739 mmHg 90%
    18:00 +10°C° 0.2 mm 2 mps 739 mmHg 91%
    19:00 +10°C° 0.2 mm 2 mps 739 mmHg 91%
    20:00 +10°C° 0.4 mm 2 mps 739 mmHg 92%
    21:00 +9°C° 0.4 mm 2 mps 739 mmHg 92%
    22:00 +9°C° 0.4 mm 2 mps 739 mmHg 93%
    23:00 +9°C° 1.1 mm 2 mps 738 mmHg 93%

    23 October, Monday

    Time Temperature Precipitation Wind Pressure Humidity
    00:00 +9°C° 1.1 mm 2 mps 738 mmHg 93%
    01:00 +9°C° 1.1 mm 3 mps 738 mmHg 94%
    02:00 +9°C° 1.3 mm 3 mps 738 mmHg 93%
    03:00 +9°C° 1.3 mm 3 mps 738 mmHg 92%
    04:00 +8°C° 1.3 mm 4 mps 737 mmHg 92%
    05:00 +7°C° 0.6 mm 4 mps 737 mmHg 91%
    06:00 +7°C° 0.6 mm 4 mps 737 mmHg 91%
    07:00 +7°C° 0.6 mm 4 mps 737 mmHg 90%
    08:00 +7°C° 0.6 mm 4 mps 737 mmHg 89%
    09:00 +7°C° 0.6 mm 4 mps 737 mmHg 88%
    10:00 +7°C° 0.6 mm 4 mps 737 mmHg 87%
    11:00 +7°C° 0.3 mm 4 mps 737 mmHg 86%
    12:00 +8°C° 0.3 mm 4 mps 737 mmHg 85%
    13:00 +8°C° 0.3 mm 4 mps 737 mmHg 84%
    14:00 +9°C° 0.3 mm 3 mps 737 mmHg 84%
    15:00 +9°C° 0.3 mm 3 mps 737 mmHg 85%
    16:00 +9°C° 0.3 mm 3 mps 737 mmHg 85%
    17:00 +8°C° 0.2 mm 3 mps 738 mmHg 87%
    18:00 +8°C° 0.2 mm 2 mps 738 mmHg 88%
    19:00 +8°C° 0.2 mm 2 mps 738 mmHg 90%
    20:00 +8°C° 0.2 mm 2 mps 738 mmHg 90%
    21:00 +8°C° 0.2 mm 2 mps 738 mmHg 91%
    22:00 +7°C° 0.2 mm 2 mps 738 mmHg 92%
    23:00 +7°C° 0.1 mm 2 mps 738 mmHg 92%

    24 October, Tuesday

    Time Temperature Precipitation Wind Pressure Humidity
    00:00 +7°C° 0.1 mm 2 mps 738 mmHg 92%
    01:00 +7°C° 0.1 mm 2 mps 738 mmHg 93%
    02:00 +7°C° 0.1 mm 3 mps 739 mmHg 93%
    03:00 +7°C° 0.1 mm 3 mps 739 mmHg 93%
    04:00 +7°C° 0.1 mm 3 mps 739 mmHg 93%
    05:00 +7°C° 0.1 mm 3 mps 739 mmHg 93%
    06:00 +7°C° 0.1 mm 3 mps 740 mmHg 93%
    07:00 +7°C° 0.1 mm 3 mps 740 mmHg 93%
    08:00 +7°C° 0.1 mm 3 mps 741 mmHg 91%
    09:00 +8°C° 0.1 mm 3 mps 741 mmHg 89%
    10:00 +8°C° 0.1 mm 3 mps 742 mmHg 86%
    11:00 +9°C° 0.1 mm 3 mps 742 mmHg 86%
    12:00 +9°C° 0.1 mm 3 mps 742 mmHg 85%
    13:00 +9°C° 0.1 mm 3 mps 743 mmHg 85%
    14:00 +9°C° 0.1 mm 3 mps 743 mmHg 86%
    15:00 +9°C° 0.1 mm 3 mps 743 mmHg 87%
    16:00 +9°C° 0.1 mm 3 mps 744 mmHg 88%
    17:00 +9°C° 0.1 mm 3 mps 745 mmHg 88%
    18:00 +9°C° 0.1 mm 3 mps 745 mmHg 89%
    19:00 +8°C° 0.1 mm 2 mps 746 mmHg 90%
    20:00 +8°C° 0 mm 2 mps 746 mmHg 91%
    21:00 +7°C° 0 mm 2 mps 747 mmHg 93%
    22:00 +8°C° 0 mm 1 mps 747 mmHg 94%
    23:00 +7°C° 0 mm 1 mps 747 mmHg 94%

    25 October, Wednesday

    Time Temperature Precipitation Wind Pressure Humidity
    00:00 +7°C° 0 mm 1 mps 748 mmHg 95%
    01:00 +7°C° 0 mm 1 mps 748 mmHg 95%
    02:00 +7°C° 0 mm 1 mps 748 mmHg 95%
    03:00 +6°C° 0 mm 1 mps 748 mmHg 95%
    04:00 +6°C° 0 mm 1 mps 748 mmHg 95%
    05:00 +6°C° 0 mm 1 mps 748 mmHg 95%
    06:00 +6°C° 0 mm 1 mps 749 mmHg 95%
    07:00 +6°C° 0 mm 1 mps 749 mmHg 94%
    08:00 +7°C° 0 mm 1 mps 749 mmHg 88%
    09:00 +9°C° 0 mm 1 mps 749 mmHg 82%
    10:00 +10°C° 0 mm 1 mps 749 mmHg 75%
    11:00 +11°C° 0 mm 1 mps 749 mmHg 71%
    12:00 +12°C° 0 mm 1 mps 749 mmHg 67%
    13:00 +13°C° 0 mm 1 mps 749 mmHg 63%
    14:00 +12°C° 0 mm 1 mps 748 mmHg 66%
    15:00 +12°C° 0 mm 1 mps 748 mmHg 68%
    16:00 +11°C° 0 mm 1 mps 748 mmHg 71%
    17:00 +11°C° 0 mm 1 mps 749 mmHg 74%
    18:00 +10°C° 0 mm 1 mps 749 mmHg 77%
    19:00 +9°C° 0 mm 1 mps 749 mmHg 80%
    20:00 +9°C° 0 mm 1 mps 749 mmHg 79%
    21:00 +9°C° 0 mm 1 mps 749 mmHg 78%
    22:00 +9°C° 0 mm 1 mps 750 mmHg 77%
    23:00 +9°C° 0 mm 1 mps 749 mmHg 75%
    Show more